Total_Precipitation_Accumulation
0.12 0.23 0.24 0.40 0.69 0.91 0.73 0.52 0.35 0.31 0.46 0.34 0.20 0.18 0.12 0.12 0.18 0.24 0.37 0.34 0.33 0.39 0.36 0.36 0.15 0.02 0.01 0.01 0.02 0.03 0.01 0.01 0.02 0.01 0.01 0.02 0.03 0.02 0.02 0.06 0.16 0.15 0.16
0.20 0.26 0.29 0.35 0.53 0.69 0.78 0.70 0.39 0.28 0.36 0.42 0.49 0.37 0.15 0.12 0.15 0.26 0.32 0.34 0.39 0.35 0.27 0.13 0.22 0.16 0.08 0.10 0.05 0.04 0.01 0.01 0.02 0.00 0.00 0.01 0.03 0.03 0.07 0.13 0.24 0.19 0.18
0.09 0.22 0.21 0.36 0.42 0.53 0.61 0.66 0.51 0.44 0.41 0.45 0.52 0.59 0.32 0.18 0.14 0.16 0.21 0.23 0.35 0.40 0.35 0.20 0.26 0.17 0.07 0.06 0.04 0.04 0.01 0.00 0.00 0.00 0.00 0.00 0.03 0.24 0.26 0.17 0.24 0.07 0.00
0.09 0.18 0.22 0.27 0.41 0.46 0.54 0.47 0.49 0.51 0.51 0.55 0.49 0.54 0.47 0.33 0.27 0.21 0.16 0.16 0.15 0.20 0.28 0.33 0.31 0.28 0.14 0.06 0.03 0.02 0.01 0.00 0.00 0.00 0.00 0.00 0.02 0.42 0.29 0.18 0.05 0.01 0.00
0.09 0.16 0.24 0.29 0.28 0.26 0.31 0.41 0.41 0.40 0.50 0.55 0.47 0.49 0.51 0.51 0.47 0.41 0.29 0.21 0.13 0.09 0.10 0.11 0.13 0.17 0.20 0.09 0.04 0.03 0.02 0.01 0.00 0.00 0.00 0.00 0.02 0.30 0.29 0.12 0.01 0.00 0.00
0.09 0.16 0.22 0.30 0.28 0.23 0.17 0.27 0.26 0.22 0.29 0.39 0.43 0.50 0.50 0.46 0.42 0.39 0.33 0.27 0.19 0.16 0.18 0.13 0.09 0.07 0.07 0.06 0.05 0.05 0.04 0.03 0.00 0.00 0.00 0.02 0.07 0.40 0.37 0.09 0.00 0.00 0.00
0.08 0.13 0.17 0.26 0.27 0.25 0.22 0.20 0.16 0.17 0.16 0.17 0.20 0.26 0.40 0.41 0.38 0.32 0.27 0.22 0.19 0.24 0.32 0.20 0.09 0.07 0.05 0.04 0.04 0.07 0.04 0.01 0.00 0.00 0.00 0.01 0.14 0.66 0.31 0.06 0.00 0.00 0.00
0.12 0.12 0.16 0.24 0.27 0.33 0.41 0.42 0.25 0.22 0.19 0.13 0.11 0.10 0.16 0.19 0.22 0.21 0.22 0.18 0.16 0.24 0.34 0.24 0.16 0.09 0.08 0.07 0.05 0.05 0.03 0.01 0.00 0.00 0.01 0.08 0.28 0.64 0.31 0.07 0.00 0.00 0.00
0.12 0.15 0.17 0.19 0.18 0.21 0.26 0.34 0.35 0.28 0.20 0.17 0.13 0.13 0.16 0.15 0.14 0.14 0.13 0.13 0.13 0.18 0.25 0.19 0.11 0.15 0.16 0.13 0.07 0.03 0.02 0.01 0.01 0.06 0.06 0.12 0.25 0.76 0.19 0.09 0.00 0.00 0.01
0.07 0.09 0.12 0.13 0.16 0.14 0.14 0.17 0.17 0.24 0.35 0.33 0.22 0.18 0.18 0.20 0.16 0.11 0.10 0.09 0.12 0.11 0.15 0.20 0.12 0.12 0.17 0.21 0.08 0.02 0.01 0.01 0.00 0.01 0.07 0.12 0.25 0.73 0.19 0.05 0.00 0.01 0.00
0.04 0.07 0.08 0.09 0.16 0.18 0.16 0.20 0.26 0.22 0.24 0.30 0.27 0.28 0.37 0.22 0.16 0.12 0.05 0.05 0.09 0.08 0.09 0.12 0.13 0.11 0.13 0.07 0.06 0.01 0.00 0.00 0.00 0.00 0.00 0.02 0.25 0.84 0.38 0.07 0.02 0.00 0.00
0.01 0.02 0.04 0.06 0.09 0.15 0.21 0.22 0.24 0.25 0.26 0.18 0.20 0.21 0.18 0.23 0.27 0.25 0.12 0.11 0.16 0.16 0.12 0.12 0.14 0.13 0.07 0.04 0.05 0.07 0.00 0.00 0.00 0.00 0.00 0.01 0.15 1.01 0.64 0.19 0.03 0.00 0.00
0.00 0.00 0.00 0.01 0.04 0.05 0.16 0.26 0.31 0.40 0.35 0.31 0.31 0.43 0.48 0.52 0.58 0.56 0.32 0.27 0.17 0.14 0.12 0.10 0.10 0.09 0.05 0.04 0.04 0.03 0.02 0.01 0.00 0.00 0.00 0.00 0.04 0.68 1.09 0.44 0.08 0.00 0.00
0.00 0.00 0.00 0.00 0.00 0.02 0.05 0.10 0.19 0.33 0.55 0.56 0.52 0.66 0.74 0.82 0.72 0.64 0.51 0.30 0.16 0.10 0.12 0.10 0.09 0.09 0.05 0.03 0.04 0.01 0.04 0.06 0.00 0.00 0.00 0.00 0.02 0.32 1.42 0.67 0.15 0.03 0.00
0.00 0.00 0.00 0.00 0.00 0.00 0.01 0.03 0.04 0.07 0.18 0.26 0.51 0.73 0.89 0.82 0.81 0.86 0.85 0.89 0.53 0.36 0.26 0.14 0.10 0.08 0.06 0.03 0.05 0.04 0.01 0.01 0.00 0.00 0.00 0.00 0.08 0.15 0.86 1.00 0.31 0.08 0.02
0.00 0.00 0.00 0.00 0.00 0.00 0.00 0.01 0.03 0.06 0.07 0.14 0.23 0.50 0.72 0.94 1.03 1.21 0.99 0.94 1.31 1.42 1.14 0.81 0.47 0.20 0.11 0.08 0.06 0.05 0.03 0.01 0.00 0.00 0.00 0.00 0.07 0.13 0.37 0.94 0.52 0.28 0.09
0.00 0.00 0.00 0.00 0.00 0.00 0.00 0.00 0.00 0.01 0.03 0.03 0.05 0.20 0.43 0.54 0.88 1.26 1.45 1.06 0.81 1.30 1.70 1.72 1.38 0.98 0.59 0.34 0.16 0.08 0.07 0.04 0.01 0.00 0.00 0.00 0.02 0.09 0.17 0.66 0.83 0.41 0.19
0.00 0.00 0.00 0.00 0.00 0.00 0.00 0.00 0.00 0.00 0.01 0.00 0.01 0.04 0.14 0.33 0.48 0.97 1.24 1.49 1.55 1.15 1.56 1.58 1.11 0.92 0.81 0.76 0.62 0.45 0.25 0.13 0.06 0.02 0.00 0.00 0.01 0.04 0.08 0.32 0.51 0.82 0.60
0.00 0.00 0.00 0.00 0.00 0.00 0.00 0.00 0.00 0.00 0.00 0.01 0.01 0.02 0.06 0.10 0.20 0.36 0.98 1.92 2.19 1.85 1.24 1.30 1.73 1.48 0.88 0.41 0.36 0.40 0.44 0.39 0.20 0.09 0.02 0.00 0.00 0.02 0.05 0.28 0.32 0.46 0.78
0.00 0.00 0.00 0.00 0.00 0.00 0.00 0.00 0.00 0.00 0.00 0.00 0.01 0.02 0.03 0.08 0.07 0.16 0.22 0.53 1.46 2.10 2.04 1.72 1.40 1.49 1.52 1.23 0.75 0.41 0.24 0.17 0.19 0.20 0.14 0.04 0.01 0.01 0.02 0.23 0.20 0.31 0.35
0.00 0.00 0.00 0.00 0.00 0.00 0.00 0.00 0.00 0.00 0.00 0.00 0.00 0.00 0.02 0.08 0.11 0.12 0.14 0.20 0.56 0.72 0.96 1.38 2.11 2.06 1.73 1.52 1.83 1.37 0.84 0.50 0.22 0.08 0.10 0.12 0.06 0.01 0.02 0.10 0.17 0.12 0.21
0.00 0.00 0.00 0.00 0.00 0.00 0.00 0.00 0.00 0.00 0.00 0.00 0.00 0.00 0.00 0.01 0.07 0.10 0.15 0.14 0.23 0.47 0.51 0.50 0.70 1.34 1.81 2.07 1.83 1.62 1.36 1.02 0.88 0.44 0.09 0.03 0.04 0.03 0.02 0.04 0.10 0.09 0.10
0.00 0.00 0.00 0.00 0.00 0.00 0.00 0.00 0.00 0.00 0.00 0.00 0.00 0.00 0.00 0.00 0.02 0.06 0.09 0.18 0.22 0.19 0.37 0.53 0.48 0.63 0.68 1.09 1.76 1.88 1.61 1.10 0.59 0.54 0.46 0.18 0.03 0.01 0.01 0.02 0.05 0.06 0.08
0.00 0.00 0.00 0.00 0.00 0.00 0.00 0.00 0.00 0.00 0.00 0.00 0.00 0.00 0.00 0.00 0.00 0.02 0.06 0.11 0.15 0.24 0.19 0.22 0.50 0.71 0.69 0.60 0.70 1.03 1.32 1.17 0.73 0.43 0.31 0.34 0.31 0.15 0.02 0.00 0.03 0.06 0.05
0.00 0.00 0.00 0.00 0.00 0.00 0.00 0.00 0.01 0.02 0.01 0.00 0.00 0.00 0.00 0.00 0.00 0.00 0.02 0.08 0.10 0.16 0.21 0.24 0.20 0.32 0.85 0.67 0.68 0.61 0.66 0.93 1.06 0.93 0.50 0.24 0.21 0.23 0.19 0.07 0.01 0.04 0.05
0.00 0.00 0.00 0.00 0.00 0.00 0.00 0.00 0.01 0.03 0.03 0.02 0.01 0.00 0.00 0.00 0.00 0.00 0.01 0.04 0.12 0.15 0.16 0.19 0.26 0.25 0.23 0.60 0.78 0.76 0.80 0.70 0.67 0.93 0.87 0.49 0.28 0.11 0.04 0.08 0.06 0.03 0.05